Location: Observatoire de Paris
(48.8363°N, 2.3365°E)
Time: 22:31:35
(UTC+01:00)

X-37B - Visible Passes

Search period start: 20 June 2021 00:00
Search period end: 30 June 2021 00:00
Orbit: 386 x 389 km, 45.0° (Epoch: 10 June)

Date Brightness Start Highest point End Pass type
(mag) Time Alt. Az. Time Alt. Az. Time Alt. Az.
20 Jun 2.5 01:28:47 19° ESE 01:28:47 19° ESE 01:29:56 10° ESE visible
20 Jun 1.2 03:01:04 15° WSW 03:03:17 35° S 03:06:14 10° ESE visible
21 Jun 1.2 02:05:32 37° SSE 02:05:32 37° SSE 02:08:02 10° ESE visible
21 Jun 1.9 03:38:44 10° WSW 03:41:14 21° SSW 03:43:45 10° SSE visible
22 Jun 1.4 02:43:03 29° SSW 02:43:03 29° SSW 02:45:51 10° SE visible
22 Jun 2.4 22:30:09 10° SSW 22:31:22 15° S 22:31:22 15° S visible
23 Jun 2.7 03:22:08 13° S 03:22:08 13° S 03:22:50 10° S visible
23 Jun 1.3 23:07:22 10° SW 23:10:08 31° S 23:10:08 31° S visible
24 Jun 1.7 22:09:24 10° SW 22:12:02 24° SSE 22:14:40 10° ESE visible
24 Jun 1.4 23:45:15 10° WSW 23:47:29 33° SW 23:47:29 33° SW visible
25 Jun 1.1 22:47:02 10° WSW 22:50:01 38° S 22:51:53 19° ESE visible
26 Jun 2.8 00:23:23 10° WSW 00:24:10 16° WSW 00:24:10 16° WSW visible
26 Jun 1.4 21:48:54 10° SW 21:51:46 31° SSE 21:54:38 10° ESE visible
26 Jun 1.0 23:25:04 10° WSW 23:28:05 40° S 23:28:17 39° S visible
27 Jun 1.0 22:26:47 10° WSW 22:29:49 41° S 22:32:18 14° ESE visible
28 Jun 2.5 00:03:18 10° WSW 00:04:33 19° WSW 00:04:33 19° WSW visible
28 Jun 1.2 23:04:55 10° WSW 23:07:52 35° S 23:08:29 32° SSE visible
29 Jun 1.1 22:06:36 10° WSW 22:09:37 40° S 22:12:24 12° ESE visible
29 Jun 2.6 23:43:20 10° WSW 23:44:40 17° SW 23:44:40 17° SW visible
